[[{"header":{"parameterUnit":"m.s-1","parameterCategory":2,"la1":30.2991,"la2":30.254,"lo1":-89.0895,"lo2":-89.0444,"dy":0.0017,"dx":0.0017,"nx":28,"ny":28,"refTime":"2025-07-19T21:00:00:Z","depth":"0","parameterNumber":2,"parameterNumberName":"U-component_of_CURRENTS"},"data":[0,0,0,0,0,0,0,0,0,0,0,0,0,0,0,0,0,0,0,0,0,0,0,0,0,0,0,0,0,0,0,0,0,0,0,0,0,0,0,0,0,0,0,0,0,0,0,0,0,0,0,0,0,0,0,0,0,0,0.4578,0.458,0,0.4709,0.471,0.4711,0.4695,0.4693,0.4691,0.4689,0.4727,0.473,0.4732,0,0,0,0,0,0,0,0,0,0,0,0,0,0.4374,0.4377,0.4578,0.458,0.4582,0.4709,0.471,0.4712,0.4695,0.4693,0.4691,0.4689,0.4726,0.4729,0.4733,0,0,0,0,0,0,0,0,0,0,0,0,0,0.4476,0.4378,0.4578,0.4591,0.4594,0.4708,0.471,0.4712,0.4696,0.4693,0.469,0.4687,0.4725,0.4729,0.4733,0.4814,0,0,0.4745,0.4747,0,0,0,0,0,0,0,0,0.447,0.4483,0.4587,0.459,0.4594,0.4685,0.4652,0.4743,0.4696,0.4654,0.4689,0.4686,0.4709,0.4714,0.4741,0.4815,0.4817,0.4746,0.4748,0.475,0.4751,0,0,0,0,0,0,0,0.4463,0.4478,0.4627,0.459,0.4594,0.4612,0.4622,0.467,0.4691,0.4657,0.4657,0.4678,0.4709,0.4738,0.4742,0.4818,0.4746,0.4749,0.4752,0.4753,0.4997,0.5001,0,0,0,0,0,0,0.4454,0.4472,0.4622,0.4631,0.4528,0.4617,0.4629,0.4656,0.4692,0.4697,0.468,0.4676,0.4732,0.4737,0.4743,0.4872,0.475,0.4754,0.4756,0.4993,0.4998,0.5002,0,0,0,0,0,0,0.4449,0.4467,0.4617,0.4556,0.4576,0.4624,0.4655,0.466,0.4699,0.4711,0.4712,0.4713,0.473,0.4737,0.4804,0.4871,0.4756,0.4759,0.4988,0.4994,0.5,0.5109,0,0,0,0,0,0,0.4443,0.4464,0.4485,0.4556,0.458,0.4709,0.4658,0.4665,0.4716,0.4713,0.4741,0.474,0.4728,0.4799,0.4808,0.4875,0.4763,0.4983,0.4991,0.4998,0.51,0.5118,0.5133,0,0,0,0,0,0.4436,0.4485,0.4485,0.4504,0.4605,0.4712,0.4728,0.4748,0.4721,0.4766,0.4774,0.474,0.4853,0.4806,0.4816,0.4885,0.4979,0.4989,0.4998,0.5093,0.5115,0.5133,0,0,0,0,0,0,0.4411,0.449,0.4492,0.4562,0.4638,0.471,0.4756,0.4769,0.4815,0.4803,0.4792,0.4796,0.488,0.4879,0.4827,0.4981,0.4912,0.4924,0.4982,0.5002,0.5018,0.498,0.4766,0,0,0,0,0,0.4416,0.447,0.4549,0.4609,0.4647,0.4703,0.4747,0.477,0.482,0.4837,0.4853,0.488,0.4932,0.4958,0.4998,0.5088,0.5106,0.5142,0.5159,0.5172,0.5153,0.5272,0.5297,0.5032,0.5032,0.5032,0,0,0.442,0.4475,0.4503,0.4608,0.4661,0.4729,0.4723,0.481,0.4854,0.4836,0.4899,0.4939,0.4969,0.5062,0.5101,0.5065,0.5265,0.5184,0.5195,0.5167,0.5284,0.5309,0.5332,0.5038,0.5037,0.5036,0,0,0.4456,0.4512,0.4558,0.4627,0.4722,0.4772,0.4801,0.4888,0.4913,0.4991,0.4994,0.5071,0.5136,0.5185,0.5211,0.5349,0.5347,0.5377,0.5431,0.555,0.5571,0.5591,0.5669,0.5694,0.5387,0.5387,0.5387,0,0.4457,0.4524,0.4594,0.4657,0.4718,0.4789,0.4856,0.491,0.5002,0.5045,0.5015,0.5174,0.5188,0.5327,0.5358,0.5384,0.5438,0.5349,0.5569,0.5588,0.5606,0.5681,0.5708,0.5393,0.5392,0.5392,0.5391,0,0.4514,0.4574,0.4621,0.4713,0.4794,0.4881,0.4962,0.5041,0.5075,0.512,0.5256,0.5309,0.5401,0.544,0.5423,0.5588,0.5583,0.5574,0.551,0.5639,0.5711,0.5737,0.5402,0.54,0.5398,0.5397,0,0,0.451,0.4631,0.4646,0.47,0.4834,0.4917,0.5013,0.5138,0.5214,0.5295,0.5402,0.5498,0.5541,0.5575,0.5621,0.5704,0.5871,0.5687,0.569,0.5746,0.6126,0.5988,0.6002,0.5917,0.5921,0.5925,0.6132,0,0.4536,0.4641,0.4702,0.4824,0.49,0.5005,0.5097,0.5214,0.5301,0.5423,0.551,0.5619,0.5593,0.5665,0.5754,0.585,0.594,0.5813,0.6004,0.6009,0.5857,0.6028,0.5692,0.5837,0.6157,0.6161,0.6164,0,0.4577,0.4645,0.4745,0.49,0.4943,0.502,0.5216,0.5305,0.5477,0.5546,0.5681,0.5744,0.5904,0.5845,0.6077,0.6008,0.6061,0.6112,0.6123,0.596,0.5918,0.5758,0.587,0.5734,0.6203,0.62,0.6197,0,0.4568,0.4695,0.4776,0.4827,0.4993,0.5067,0.5168,0.5342,0.5457,0.5633,0.5743,0.5915,0.6034,0.6147,0.6237,0.6185,0.6465,0.6415,0.6346,0.6337,0.6062,0.602,0.6035,0.6562,0.6562,0.6561,0.6561,0,0.461,0.4685,0.4772,0.4826,0.4964,0.5063,0.523,0.5357,0.5543,0.5696,0.5807,0.5963,0.6115,0.628,0.6325,0.6428,0.6557,0.6375,0.6396,0.6093,0.6053,0.5924,0.5878,0.6569,0.6567,0.6566,0.6564,0,0.4643,0.4679,0.4794,0.4923,0.497,0.5079,0.5286,0.5399,0.5566,0.5778,0.5845,0.6064,0.625,0.6387,0.6581,0.6543,0.6456,0.6636,0.6245,0.6212,0.5935,0.5906,0.5766,0.5603,0.6581,0.6579,0.6577,0,0.4684,0.4734,0.486,0.4917,0.4983,0.5129,0.523,0.5411,0.5526,0.5832,0.5925,0.6162,0.6271,0.6502,0.6471,0.6542,0.6413,0.628,0.6086,0.5892,0.588,0.5703,0.5563,0.5792,0.5784,0.5777,0.5772,0,0.4781,0.4806,0.488,0.4977,0.5069,0.519,0.5327,0.5422,0.5625,0.5753,0.5931,0.6031,0.6212,0.6096,0.6176,0.6174,0.5944,0.6145,0.6063,0.5356,0.5047,0.4906,0.5682,0.5714,0.572,0.5724,0.5727,0.573,0.4849,0.4901,0.4953,0.5043,0.5124,0.5186,0.5208,0.5314,0.5422,0.5484,0.5744,0.5699,0.5749,0.5757,0.575,0.5495,0.5548,0.5295,0.5314,0.5182,0.4882,0.5508,0.5483,0.5488,0.5491,0.5495,0.5497,0,0.4896,0.4922,0.5013,0.5045,0.5053,0.5128,0.5204,0.5123,0.5087,0.5159,0.5192,0.5114,0.4994,0.5027,0.4885,0.4697,0.4486,0.4591,0.4265,0.42,0.4861,0.4678,0.4329,0.4329,0.4329,0.4329,0.4329,0.433,0.4939,0.4961,0.4967,0.4934,0.4932,0.4821,0.4802,0.4688,0.4643,0.4406,0.4253,0.4295,0.4516,0.4526,0.4305,0.4185,0.3915,0.3684,0.3802,0.4267,0.4333,0.4396,0.4213,0.3772,0.3772,0.2881,0.2875,0.287]},{"header":{"parameterUnit":"m.s-1","parameterCategory":2,"la1":30.2991,"la2":30.254,"lo1":-89.0895,"lo2":-89.0444,"dy":0.0017,"dx":0.0017,"nx":28,"ny":28,"refTime":"2025-07-19T21:00:00:Z","depth":"0","parameterNumber":3,"parameterNumberName":"V-component_of_CURRENTS"},"data":[0,0,0,0,0,0,0,0,0,0,0,0,0,0,0,0,0,0,0,0,0,0,0,0,0,0,0,0,0,0,0,0,0,0,0,0,0,0,0,0,0,0,0,0,0,0,0,0,0,0,0,0,0,0,0,0,0,0,0.0293,0.0292,0,0.0211,0.021,0.0209,0.0133,0.0133,0.0132,0.0132,-0.0,-0.0003,-0.0006,0,0,0,0,0,0,0,0,0,0,0,0,0,0.0301,0.0302,0.0293,0.0292,0.0292,0.0211,0.021,0.0208,0.0133,0.0133,0.0132,0.0131,0.0001,-0.0003,-0.0006,0,0,0,0,0,0,0,0,0,0,0,0,0,0.0263,0.0302,0.0293,0.0247,0.0243,0.0212,0.021,0.0208,0.0133,0.0133,0.0132,0.0131,0.0002,-0.0002,-0.0007,-0.0017,0,0,-0.002,-0.0022,0,0,0,0,0,0,0,0,0.0265,0.0262,0.0255,0.0251,0.0245,0.0185,0.0165,0.0131,0.0134,0.0171,0.0132,0.0131,0.006,0.0051,0.0033,-0.0024,-0.0029,-0.0021,-0.0024,-0.0025,-0.0027,0,0,0,0,0,0,0,0.0268,0.0265,0.0257,0.0254,0.0249,0.0203,0.0197,0.0157,0.0117,0.0168,0.0163,0.016,0.0057,0.0037,0.0029,-0.0031,-0.0021,-0.0025,-0.0027,-0.0029,-0.0092,-0.0091,0,0,0,0,0,0,0.0292,0.0268,0.0259,0.0255,0.0258,0.0204,0.0197,0.0202,0.0119,0.0107,0.0161,0.0157,0.0045,0.0034,0.0024,0.0048,-0.0025,-0.003,-0.0032,-0.0093,-0.0092,-0.0091,0,0,0,0,0,0,0.0292,0.0292,0.0263,0.0262,0.0255,0.0206,0.0211,0.0201,0.0187,0.0115,0.0101,0.0159,0.0044,0.003,-0.0004,0.0041,-0.0032,-0.0036,-0.0094,-0.0093,-0.0091,0.007,0,0,0,0,0,0,0.0293,0.0293,0.0299,0.0264,0.0257,0.0264,0.0212,0.02,0.0188,0.0182,0.0109,0.0095,0.0042,0.0004,-0.0008,0.0033,-0.0039,-0.0095,-0.0094,-0.0092,0.0063,0.0076,0.0088,0,0,0,0,0,0.0294,0.0321,0.03,0.0299,0.0269,0.0266,0.0258,0.0216,0.019,0.0197,0.014,0.0098,0.0007,0.0001,-0.0013,0.0028,-0.0096,-0.0094,-0.0092,0.0058,0.0074,0.0088,0,0,0,0,0,0,0.0334,0.0315,0.0292,0.0312,0.0296,0.0255,0.0256,0.0229,0.019,0.0179,0.0106,0.0089,0.0075,0.0025,0.0019,0.0013,-0.0049,-0.0049,0.0069,0.0084,0.0096,0.0142,-0.0043,0,0,0,0,0,0.0346,0.0357,0.0331,0.0348,0.0343,0.03,0.029,0.0267,0.023,0.0212,0.0162,0.0108,0.0074,0.0058,0.0011,0.0009,-0.002,0.0026,0.0039,0.005,0.0076,0.0077,0.0094,-0.0083,-0.0083,-0.0083,0,0,0.0365,0.0357,0.0362,0.0356,0.0334,0.0351,0.0292,0.0293,0.0314,0.0204,0.0209,0.0146,0.0079,0.0076,0.0067,0.0042,0.0081,0.0053,0.0063,0.0084,0.0082,0.0099,0.0115,-0.0082,-0.0082,-0.0082,0,0,0.0423,0.0404,0.0434,0.0432,0.0417,0.0393,0.0402,0.0369,0.0361,0.0351,0.0284,0.0258,0.0191,0.0171,0.0147,0.0202,0.0142,0.0177,0.0288,0.0289,0.0305,0.0318,0.0298,0.0308,0.0191,0.0192,0.0192,0,0.0443,0.0482,0.0443,0.0476,0.0488,0.0423,0.0466,0.0453,0.0415,0.0424,0.0371,0.0312,0.0247,0.0276,0.0284,0.0237,0.0212,0.0242,0.031,0.0322,0.0333,0.0309,0.0319,0.02,0.0199,0.0198,0.0197,0,0.0525,0.0555,0.0577,0.0594,0.06,0.0627,0.0608,0.0617,0.0584,0.0561,0.057,0.0489,0.0464,0.0436,0.0369,0.0424,0.0372,0.0323,0.0283,0.0362,0.033,0.0337,0.0211,0.0208,0.0206,0.0204,0,0,0.0574,0.0625,0.0631,0.0674,0.0669,0.0693,0.0732,0.0756,0.0806,0.075,0.0817,0.0739,0.0692,0.0664,0.0595,0.0586,0.0622,0.0494,0.049,0.0494,0.0612,0.0542,0.0542,0.0585,0.0587,0.0589,0.0557,0,0.0649,0.0743,0.0744,0.0838,0.0886,0.0865,0.0919,0.093,0.0917,0.0961,0.09,0.0914,0.0784,0.0788,0.0761,0.0665,0.0648,0.0634,0.0517,0.0514,0.046,0.0551,0.0506,0.0471,0.0563,0.0564,0.0565,0,0.0727,0.0785,0.0888,0.0986,0.1007,0.1055,0.1136,0.1179,0.1207,0.1204,0.1202,0.1141,0.1136,0.101,0.0912,0.0906,0.0776,0.0684,0.068,0.057,0.0459,0.0405,0.0479,0.0263,0.0575,0.0574,0.0573,0,0.0782,0.0891,0.0981,0.101,0.1098,0.1162,0.1212,0.1252,0.1327,0.1372,0.1431,0.1375,0.1392,0.1239,0.1033,0.0979,0.0913,0.0816,0.0631,0.0623,0.0541,0.0522,0.0413,0.0749,0.075,0.075,0.075,0,0.0861,0.0939,0.1027,0.108,0.1226,0.1253,0.14,0.1441,0.1532,0.166,0.1572,0.1675,0.145,0.1372,0.1138,0.0927,0.0997,0.0681,0.0629,0.0591,0.0578,0.0347,0.0205,0.0748,0.0749,0.0749,0.0749,0,0.0907,0.0954,0.108,0.1201,0.1255,0.1361,0.1534,0.1644,0.1711,0.189,0.1926,0.1922,0.1834,0.1579,0.1351,0.1092,0.0726,0.0767,0.0726,0.067,0.0265,0.0134,-0.0059,-0.0146,0.0565,0.0564,0.0562,0,0.0943,0.1007,0.1164,0.1263,0.1331,0.1491,0.1614,0.1721,0.1854,0.206,0.217,0.2153,0.217,0.1804,0.1352,0.0953,0.0714,0.062,0.0501,0.0271,0.0086,-0.0018,-0.0083,0.0446,0.0444,0.0442,0.0441,0,0.1025,0.1067,0.1169,0.1358,0.151,0.1692,0.1882,0.2017,0.2183,0.2356,0.2572,0.261,0.2272,0.1858,0.1286,0.0992,0.0442,0.0567,0.0355,0.0019,-0.0124,-0.0241,0.0421,0.0425,0.0426,0.0428,0.0428,0.0429,0.1085,0.1165,0.1293,0.1478,0.1658,0.1885,0.2054,0.2272,0.2525,0.2789,0.2831,0.2898,0.2289,0.1517,0.1104,0.0307,0.032,0.003,-0.0099,-0.0171,-0.0287,0.0333,0.0257,0.0257,0.0258,0.0258,0.0259,0,0.1162,0.1249,0.1417,0.164,0.1844,0.1927,0.223,0.2414,0.2733,0.2921,0.3094,0.2793,0.2062,0.1323,0.0254,-0.0277,-0.0447,-0.0547,-0.0699,-0.0724,-0.0146,-0.0183,-0.0387,-0.0387,-0.0387,-0.0387,-0.0387,-0.0386,0.121,0.1351,0.1428,0.1753,0.1924,0.2202,0.238,0.2658,0.2842,0.3044,0.3026,0.2993,0.2396,0.06,-0.0578,-0.0826,-0.1154,-0.1287,-0.139,-0.1016,-0.0972,-0.0929,-0.0993,-0.1365,-0.1366,-0.1906,-0.1912,-0.1917]}],[{"header":{"parameterUnit":"m.s-1","parameterCategory":2,"la1":30.2991,"la2":30.254,"lo1":-89.0895,"lo2":-89.0444,"dy":0.0017,"dx":0.0017,"nx":28,"ny":28,"refTime":"2025-07-19T21:00:00:Z","depth":"2","parameterNumber":2,"parameterNumberName":"U-component_of_CURRENTS"},"data":[0,0,0,0,0,0,0,0,0,0,0,0,0,0,0,0,0,0,0,0,0,0,0,0,0,0,0,0,0,0,0,0,0,0,0,0,0,0,0,0,0,0,0,0,0,0,0,0,0,0,0,0,0,0,0,0,0,0,0.3516,0.3517,0,0.3573,0.3573,0.3573,0.3582,0.3582,0.3582,0.3582,0.3659,0.3661,0.3663,0,0,0,0,0,0,0,0,0,0,0,0,0,0.3394,0.3395,0.3516,0.3517,0.3519,0.3573,0.3573,0.3573,0.3581,0.3582,0.3582,0.3582,0.3659,0.3661,0.3663,0,0,0,0,0,0,0,0,0,0,0,0,0,0.344,0.3396,0.3515,0.3536,0.3539,0.3573,0.3573,0.3573,0.3581,0.3582,0.3582,0.3583,0.3658,0.3661,0.3663,0.3672,0,0,0.3671,0.3673,0,0,0,0,0,0,0,0,0.3437,0.3443,0.3531,0.3535,0.3538,0.3578,0.3559,0.361,0.3581,0.3556,0.3582,0.3583,0.3639,0.3644,0.3641,0.3675,0.3679,0.3672,0.3673,0.3674,0.3675,0,0,0,0,0,0,0,0.3434,0.3441,0.353,0.3533,0.3537,0.3536,0.3542,0.3568,0.3588,0.3558,0.3561,0.3581,0.364,0.3638,0.3643,0.368,0.3672,0.3674,0.3676,0.3677,0.3823,0.3825,0,0,0,0,0,0,0.3446,0.3438,0.3528,0.3532,0.3498,0.3539,0.3545,0.3558,0.3588,0.3595,0.3581,0.3582,0.3633,0.364,0.3646,0.3786,0.3674,0.3677,0.3678,0.3821,0.3824,0.3826,0,0,0,0,0,0,0.3442,0.3452,0.3526,0.3494,0.3504,0.3541,0.3555,0.3559,0.3593,0.3606,0.3612,0.3616,0.3634,0.3642,0.3704,0.3784,0.3678,0.3681,0.3818,0.3822,0.3825,0.3985,0,0,0,0,0,0,0.3438,0.3451,0.347,0.3494,0.3507,0.3568,0.3556,0.356,0.3606,0.3608,0.3638,0.3643,0.3635,0.37,0.3707,0.3786,0.3683,0.3815,0.382,0.3824,0.3977,0.3993,0.4007,0,0,0,0,0,0.3434,0.3473,0.347,0.3482,0.3529,0.357,0.3576,0.3597,0.3608,0.3627,0.3656,0.3644,0.3732,0.3705,0.3712,0.3794,0.3813,0.3819,0.3823,0.397,0.399,0.4007,0,0,0,0,0,0,0.3436,0.3479,0.3476,0.3527,0.3552,0.3575,0.3619,0.3621,0.3656,0.3671,0.3674,0.3682,0.3763,0.3749,0.3719,0.3844,0.3771,0.3778,0.388,0.3899,0.3914,0.3897,0.3685,0,0,0,0,0,0.3444,0.3474,0.351,0.3545,0.3579,0.36,0.3626,0.3632,0.3666,0.3682,0.37,0.3731,0.3783,0.3818,0.3836,0.3912,0.3919,0.3965,0.3981,0.3994,0.3983,0.4098,0.4124,0.3843,0.3843,0.3843,0,0,0.3446,0.3481,0.3493,0.3546,0.3581,0.3631,0.3616,0.367,0.3713,0.3687,0.3763,0.3782,0.3811,0.3892,0.3929,0.39,0.4078,0.4001,0.4013,0.3994,0.4107,0.4134,0.4159,0.3846,0.3846,0.3845,0,0,0.3477,0.3516,0.3555,0.3587,0.3647,0.3674,0.37,0.3738,0.3769,0.3831,0.3838,0.3899,0.396,0.3999,0.4031,0.414,0.4149,0.4161,0.4244,0.4359,0.4383,0.4405,0.4456,0.4481,0.418,0.418,0.4181,0,0.3486,0.3531,0.3571,0.3624,0.3664,0.3705,0.3755,0.3803,0.3844,0.3884,0.3875,0.3999,0.4011,0.4146,0.4177,0.4179,0.4228,0.4181,0.4383,0.4404,0.4424,0.4471,0.4496,0.4189,0.4188,0.4187,0.4186,0,0.3534,0.3579,0.3623,0.3699,0.3746,0.38,0.3872,0.393,0.3978,0.4007,0.4129,0.416,0.4234,0.4264,0.4257,0.4414,0.4398,0.4387,0.4343,0.4463,0.4503,0.4527,0.4201,0.4198,0.4195,0.4193,0,0,0.3533,0.3633,0.3649,0.3676,0.3787,0.382,0.3945,0.4044,0.4133,0.4191,0.4311,0.4392,0.4409,0.4442,0.4468,0.4555,0.4727,0.4539,0.4542,0.46,0.4965,0.4784,0.4791,0.4785,0.479,0.4794,0.494,0,0.3561,0.3647,0.37,0.378,0.3834,0.3917,0.403,0.4121,0.4215,0.4341,0.4424,0.4536,0.449,0.4557,0.4645,0.4704,0.4797,0.4685,0.4828,0.483,0.4665,0.4815,0.445,0.4535,0.4963,0.4967,0.497,0,0.3589,0.3642,0.3722,0.3818,0.3858,0.3925,0.4099,0.4197,0.4394,0.4472,0.4607,0.4673,0.4819,0.477,0.4947,0.4893,0.4937,0.4969,0.4977,0.4759,0.4693,0.4482,0.4562,0.5009,0.5006,0.5003,0.5,0,0.3552,0.3652,0.371,0.3741,0.3877,0.3947,0.405,0.4236,0.4331,0.4575,0.4671,0.4849,0.4951,0.506,0.5112,0.5067,0.5298,0.5244,0.512,0.5106,0.4788,0.4736,0.5387,0.5387,0.5386,0.5386,0.5385,0,0.3555,0.3589,0.3695,0.3727,0.3823,0.3929,0.4065,0.4216,0.4416,0.4551,0.4735,0.4863,0.5036,0.5174,0.5207,0.5234,0.5386,0.5149,0.515,0.4828,0.4781,0.5169,0.5142,0.5391,0.539,0.5389,0.5388,0,0.349,0.3564,0.3607,0.3742,0.3808,0.3866,0.405,0.414,0.4364,0.4563,0.4652,0.4905,0.5071,0.5208,0.5386,0.5321,0.5388,0.5365,0.494,0.4885,0.5087,0.5066,0.5224,0.5219,0.5215,0.5211,0.5209,0,0.349,0.3483,0.3602,0.3643,0.3705,0.3815,0.3915,0.4115,0.4226,0.456,0.4658,0.4892,0.5004,0.518,0.5169,0.5217,0.5337,0.4873,0.4687,0.5094,0.5081,0.5066,0.5052,0.4341,0.4332,0.4324,0.4317,0,0.3437,0.3444,0.3513,0.3577,0.3651,0.3718,0.3887,0.3953,0.4214,0.4348,0.4569,0.4681,0.4866,0.4727,0.4786,0.4759,0.4826,0.4703,0.5324,0.4414,0.4267,0.4252,0.4266,0.4247,0.4254,0.4259,0.4263,0.4266,0.3437,0.3403,0.3468,0.3523,0.3593,0.3644,0.3649,0.3792,0.3897,0.4085,0.4309,0.434,0.4419,0.4271,0.4176,0.4116,0.4411,0.4223,0.4247,0.4279,0.4126,0.3978,0.3872,0.3877,0.3881,0.3884,0.3888,0,0.3402,0.3388,0.3412,0.3484,0.3489,0.3553,0.3642,0.3569,0.3596,0.379,0.3887,0.3605,0.351,0.3605,0.3391,0.3374,0.3344,0.3245,0.3181,0.3256,0.3322,0.3116,0.2597,0.2592,0.2588,0.2584,0,0,0.3376,0.34,0.3361,0.3371,0.3406,0.3331,0.3306,0.321,0.3241,0.3165,0.3163,0.3403,0.3522,0.3014,0.295,0.2738,0.2976,0.2641,0.3691,0.3695,0.3754,0.3914,0.3685,0,0,0,0,0]},{"header":{"parameterUnit":"m.s-1","parameterCategory":2,"la1":30.2991,"la2":30.254,"lo1":-89.0895,"lo2":-89.0444,"dy":0.0017,"dx":0.0017,"nx":28,"ny":28,"refTime":"2025-07-19T21:00:00:Z","depth":"2","parameterNumber":3,"parameterNumberName":"V-component_of_CURRENTS"},"data":[0,0,0,0,0,0,0,0,0,0,0,0,0,0,0,0,0,0,0,0,0,0,0,0,0,0,0,0,0,0,0,0,0,0,0,0,0,0,0,0,0,0,0,0,0,0,0,0,0,0,0,0,0,0,0,0,0,0,0.0135,0.0134,0,0.0057,0.0056,0.0055,-0.0005,-0.0005,-0.0005,-0.0006,-0.0109,-0.0111,-0.0114,0,0,0,0,0,0,0,0,0,0,0,0,0,0.0151,0.0152,0.0135,0.0134,0.0133,0.0058,0.0056,0.0055,-0.0005,-0.0005,-0.0006,-0.0006,-0.0108,-0.0111,-0.0114,0,0,0,0,0,0,0,0,0,0,0,0,0,0.0113,0.0152,0.0135,0.0097,0.0093,0.0058,0.0056,0.0054,-0.0005,-0.0005,-0.0006,-0.0006,-0.0107,-0.0111,-0.0114,-0.0129,0,0,-0.0126,-0.0127,0,0,0,0,0,0,0,0,0.0116,0.0113,0.0103,0.0099,0.0095,0.0038,0.0024,-0.0007,-0.0005,0.0029,-0.0006,-0.0006,-0.006,-0.0067,-0.0085,-0.0134,-0.0138,-0.0126,-0.0128,-0.013,-0.0131,0,0,0,0,0,0,0,0.0119,0.0115,0.0101,0.0102,0.0097,0.0057,0.0051,0.0018,-0.0015,0.0026,0.0022,0.0019,-0.0063,-0.0081,-0.0088,-0.014,-0.0126,-0.0129,-0.0132,-0.0133,-0.02,-0.02,0,0,0,0,0,0,0.0139,0.0118,0.0103,0.0099,0.0108,0.0057,0.0051,0.0054,-0.0014,-0.0024,0.0019,0.0016,-0.0075,-0.0084,-0.0092,-0.0084,-0.013,-0.0133,-0.0136,-0.0201,-0.02,-0.02,0,0,0,0,0,0,0.014,0.0139,0.0107,0.0108,0.0102,0.0058,0.0062,0.0053,0.004,-0.0018,-0.0029,0.0016,-0.0075,-0.0087,-0.0109,-0.009,-0.0135,-0.0138,-0.0201,-0.0201,-0.02,-0.0087,0,0,0,0,0,0,0.0141,0.014,0.0146,0.011,0.0103,0.0102,0.0062,0.0052,0.0039,0.0035,-0.0025,-0.0035,-0.0077,-0.0103,-0.0113,-0.0096,-0.0141,-0.0202,-0.0201,-0.02,-0.0092,-0.0083,-0.0076,0,0,0,0,0,0.0142,0.0164,0.0147,0.0145,0.0114,0.0104,0.0096,0.006,0.004,0.0044,0.0003,-0.0033,-0.0105,-0.0106,-0.0117,-0.01,-0.0202,-0.0201,-0.02,-0.0095,-0.0085,-0.0076,0,0,0,0,0,0,0.0176,0.0159,0.0139,0.0155,0.0135,0.0095,0.0096,0.007,0.0039,0.0035,-0.0025,-0.0037,-0.0052,-0.0093,-0.0092,-0.012,-0.0161,-0.0162,-0.0077,-0.0068,-0.006,-0.0018,-0.0144,0,0,0,0,0,0.0187,0.0196,0.017,0.0181,0.0177,0.0136,0.0125,0.0105,0.0074,0.006,0.0019,-0.0026,-0.0059,-0.0075,-0.0113,-0.0123,-0.0157,-0.0123,-0.0115,-0.0108,-0.0082,-0.0113,-0.0105,-0.0197,-0.0197,-0.0197,0,0,0.0203,0.0194,0.0199,0.0188,0.0168,0.0178,0.0128,0.0126,0.014,0.0054,0.0056,0.0001,-0.0056,-0.0069,-0.0079,-0.0098,-0.0104,-0.0106,-0.0099,-0.0078,-0.0111,-0.0102,-0.0094,-0.0196,-0.0196,-0.0196,0,0,0.025,0.0234,0.026,0.0253,0.0238,0.0213,0.0219,0.0187,0.0179,0.017,0.0113,0.0078,0.0024,-0.0008,-0.0032,-0.0002,-0.0061,-0.0025,0.0055,0.0025,0.0033,0.004,-0.0003,-0.0001,-0.0018,-0.0018,-0.0018,0,0.0267,0.0299,0.0265,0.029,0.0295,0.0238,0.027,0.0256,0.0221,0.0226,0.0188,0.0117,0.0059,0.0056,0.0059,0.002,-0.0013,0.0026,0.0038,0.0044,0.0049,0.0004,0.0005,-0.0012,-0.0013,-0.0013,-0.0014,0,0.0335,0.0359,0.0377,0.0388,0.0385,0.0405,0.0383,0.0388,0.036,0.0334,0.0324,0.0245,0.0207,0.0174,0.0124,0.0132,0.0091,0.0053,0.0022,0.0066,0.0014,0.0013,-0.0004,-0.0006,-0.0008,-0.0009,0,0,0.0377,0.0418,0.0423,0.046,0.0443,0.0458,0.0484,0.0495,0.0532,0.0473,0.0512,0.0427,0.0374,0.0343,0.0271,0.0239,0.0226,0.0169,0.0165,0.0143,0.0153,0.0087,0.0079,0.0191,0.0191,0.0192,0.01,0,0.044,0.0521,0.0515,0.0589,0.0629,0.0602,0.0637,0.0636,0.0619,0.064,0.0563,0.0559,0.0443,0.0434,0.0379,0.0272,0.023,0.0254,0.0101,0.0097,0.0046,0.0078,0.0116,0.0035,0.0098,0.0098,0.0098,0,0.0503,0.0556,0.0641,0.0717,0.0732,0.0763,0.0816,0.0848,0.0848,0.0841,0.0806,0.0738,0.0683,0.0584,0.0425,0.0445,0.0315,0.022,0.0214,0.0119,0.003,0.0001,0.003,0.0095,0.0096,0.0096,0.0096,0,0.0554,0.0644,0.0722,0.0744,0.0809,0.0856,0.0891,0.0905,0.0969,0.0978,0.1013,0.0907,0.0886,0.0716,0.0495,0.0467,0.0321,0.0252,0.0069,0.0061,0.0049,0.004,0.0152,0.0152,0.0152,0.0152,0.0153,0,0.0619,0.0687,0.0764,0.0812,0.0933,0.094,0.1063,0.1085,0.1142,0.1243,0.1126,0.1171,0.0921,0.0796,0.0568,0.032,0.0368,0.0099,0.0043,0.0085,0.008,0.0097,0.0092,0.0149,0.015,0.015,0.0151,0,0.0659,0.0702,0.0817,0.0918,0.0962,0.1052,0.1195,0.129,0.1319,0.1455,0.1474,0.138,0.121,0.0936,0.0666,0.0431,0.0192,0.009,0.0147,0.0099,-0.007,-0.0068,-0.0122,-0.0125,-0.0127,-0.013,-0.0131,0,0.0689,0.0748,0.0899,0.0994,0.105,0.1191,0.13,0.1375,0.1493,0.1592,0.1674,0.155,0.147,0.1024,0.0617,0.0215,0.017,-0.0023,-0.008,-0.0044,-0.0093,-0.0088,-0.0083,-0.0059,-0.006,-0.0061,-0.0062,0,0.0764,0.081,0.0915,0.1098,0.1235,0.1407,0.1572,0.1697,0.1816,0.1894,0.1981,0.1919,0.151,0.1098,0.054,0.0268,0.0037,-0.0056,-0.0004,-0.0002,0.0006,-0.004,-0.0035,-0.0069,-0.0068,-0.0068,-0.0067,-0.0067,0.0828,0.0915,0.1054,0.1234,0.1396,0.1614,0.1773,0.1937,0.2113,0.2248,0.2188,0.2082,0.1634,0.0896,0.0441,-0.003,-0.0023,-0.02,-0.0193,-0.0186,-0.0168,-0.0166,-0.027,-0.027,-0.0271,-0.0271,-0.0271,0,0.0929,0.1027,0.1187,0.141,0.1598,0.1673,0.1949,0.2078,0.228,0.2357,0.237,0.1919,0.1458,0.0959,0.0257,-0.0182,-0.0195,-0.0318,-0.0227,-0.0217,-0.021,-0.019,-0.0299,-0.0301,-0.0302,-0.0303,0,0,0.0986,0.115,0.1226,0.154,0.1706,0.1954,0.2121,0.2268,0.2361,0.239,0.2322,0.2189,0.1591,0.1077,0.0498,0.0107,0.0043,0.0023,0.0089,0.0273,0.0286,-0.0103,-0.0057,0,0,0,0,0]}],[{"header":{"parameterUnit":"m.s-1","parameterCategory":2,"la1":30.2991,"la2":30.254,"lo1":-89.0895,"lo2":-89.0444,"dy":0.0017,"dx":0.0017,"nx":28,"ny":28,"refTime":"2025-07-19T21:00:00:Z","depth":"4","parameterNumber":2,"parameterNumberName":"U-component_of_CURRENTS"},"data":[0,0,0,0,0,0,0,0,0,0,0,0,0,0,0,0,0,0,0,0,0,0,0,0,0,0,0,0,0,0,0,0,0,0,0,0,0,0,0,0,0,0,0,0,0,0,0,0,0,0,0,0,0,0,0,0,0,0,0.1919,0.192,0,0.1952,0.1953,0.1953,0.2018,0.202,0.2021,0.2022,0.2127,0.2128,0.213,0,0,0,0,0,0,0,0,0,0,0,0,0,0.1869,0.1869,0.1919,0.192,0.192,0.1952,0.1953,0.1953,0.2018,0.202,0.2021,0.2022,0.2126,0.2128,0.213,0,0,0,0,0,0,0,0,0,0,0,0,0,0.1896,0.187,0.1919,0.1956,0.1959,0.1952,0.1953,0.1953,0.2018,0.202,0.2021,0.2023,0.2126,0.2128,0.213,0.2108,0,0,0.2138,0.2139,0,0,0,0,0,0,0,0,0.1894,0.1897,0.195,0.1953,0.1957,0.1983,0.1973,0.2009,0.2017,0.1996,0.2022,0.2024,0.2083,0.2089,0.2091,0.2113,0.2118,0.2138,0.214,0.2141,0.2141,0,0,0,0,0,0,0,0.1892,0.1896,0.1933,0.195,0.1955,0.1955,0.1962,0.198,0.2031,0.1998,0.2003,0.2005,0.2086,0.2089,0.2094,0.2119,0.2138,0.214,0.2142,0.2143,0.2278,0.228,0,0,0,0,0,0,0.1887,0.1894,0.1932,0.1934,0.1929,0.1955,0.1962,0.1973,0.2029,0.2039,0.2003,0.2008,0.2084,0.2091,0.2099,0.2212,0.2141,0.2143,0.2144,0.2276,0.2279,0.2281,0,0,0,0,0,0,0.1886,0.189,0.1931,0.1914,0.1919,0.1954,0.1966,0.1973,0.202,0.2032,0.2044,0.2048,0.2085,0.2095,0.2168,0.2211,0.2144,0.2146,0.2274,0.2277,0.228,0.2351,0,0,0,0,0,0,0.1885,0.189,0.1918,0.1914,0.192,0.1958,0.1964,0.1972,0.2015,0.2023,0.2074,0.2083,0.2088,0.2165,0.2171,0.2213,0.2148,0.2271,0.2275,0.2279,0.2346,0.2356,0.2365,0,0,0,0,0,0.1883,0.1896,0.1919,0.1924,0.195,0.1959,0.1963,0.1993,0.2016,0.2042,0.209,0.2083,0.2194,0.2169,0.2175,0.2219,0.2269,0.2274,0.2278,0.2342,0.2354,0.2365,0,0,0,0,0,0,0.1889,0.1904,0.1929,0.1949,0.1973,0.1971,0.1998,0.2015,0.2069,0.2098,0.211,0.2123,0.2201,0.2201,0.2173,0.2271,0.223,0.2236,0.2276,0.2288,0.2297,0.2328,0.215,0,0,0,0,0,0.1902,0.1921,0.1937,0.196,0.1977,0.1998,0.2015,0.2039,0.2071,0.2099,0.2133,0.2176,0.2215,0.2248,0.2277,0.233,0.2351,0.2363,0.2373,0.2381,0.2412,0.25,0.2521,0.2297,0.2297,0.2297,0,0,0.1913,0.1921,0.1937,0.1964,0.1988,0.2014,0.2015,0.2056,0.2099,0.2101,0.2188,0.2212,0.2237,0.2302,0.2336,0.2316,0.2448,0.2387,0.2393,0.2421,0.2507,0.2529,0.2549,0.23,0.2299,0.2299,0,0,0.1921,0.1956,0.1975,0.2001,0.2043,0.2053,0.2075,0.2109,0.2159,0.2234,0.2246,0.231,0.2366,0.2393,0.2412,0.2492,0.2494,0.2496,0.2575,0.2659,0.2679,0.2696,0.2716,0.2735,0.2503,0.2503,0.2503,0,0.1942,0.1964,0.1984,0.2011,0.2041,0.2076,0.2113,0.2156,0.2216,0.227,0.2285,0.2399,0.2415,0.2492,0.2525,0.2516,0.2548,0.2525,0.2673,0.2691,0.2708,0.2724,0.2745,0.2507,0.2506,0.2506,0.2506,0,0.1961,0.1996,0.201,0.2058,0.2093,0.2131,0.2188,0.2251,0.2316,0.2364,0.2484,0.252,0.2596,0.2597,0.2594,0.2709,0.2684,0.2672,0.2644,0.2735,0.2745,0.2765,0.2513,0.2511,0.251,0.2509,0,0,0.196,0.2015,0.2029,0.2055,0.213,0.2147,0.2245,0.2331,0.2414,0.2502,0.2612,0.2687,0.2731,0.2756,0.2755,0.2824,0.2947,0.2812,0.2815,0.2831,0.3108,0.2903,0.2903,0.2974,0.2979,0.2982,0.3054,0,0.1978,0.2022,0.2059,0.2116,0.214,0.2218,0.2294,0.2388,0.2496,0.261,0.2693,0.28,0.2783,0.2842,0.2912,0.2952,0.301,0.2927,0.3019,0.3021,0.2829,0.2924,0.2998,0.3069,0.3073,0.3076,0.3079,0,0.1975,0.2009,0.2069,0.2136,0.2163,0.2219,0.2362,0.2446,0.2616,0.2709,0.2846,0.2921,0.3048,0.3019,0.3163,0.312,0.3136,0.3148,0.3151,0.2957,0.2854,0.2969,0.3114,0.3111,0.3108,0.3106,0.3104,0,0.1915,0.2,0.2048,0.2077,0.2175,0.2247,0.2326,0.2491,0.2584,0.2802,0.2904,0.3059,0.3166,0.324,0.3289,0.326,0.3417,0.337,0.3186,0.3169,0.3299,0.328,0.3475,0.3475,0.3475,0.3475,0.3474,0,0.1864,0.19,0.2035,0.2052,0.214,0.2237,0.2368,0.2477,0.2659,0.2773,0.2965,0.3075,0.3244,0.3346,0.3352,0.3329,0.3478,0.3225,0.3195,0.3318,0.3301,0.331,0.3289,0.3477,0.3477,0.3476,0.3476,0,0.1742,0.1834,0.1889,0.2037,0.2098,0.2166,0.2356,0.2444,0.2649,0.2812,0.2894,0.3137,0.3281,0.3376,0.3496,0.3395,0.3395,0.3337,0.3451,0.3421,0.3066,0.3049,0.315,0.3144,0.3139,0.3134,0.3131,0,0.1673,0.1686,0.1863,0.1922,0.1995,0.2131,0.2218,0.2415,0.2515,0.2816,0.2869,0.3107,0.3238,0.3241,0.3354,0.335,0.3302,0.3269,0.3182,0.3083,0.3045,0.3036,0.3026,0.3122,0.3121,0.312,0.3118,0,0.1535,0.162,0.1688,0.1818,0.1922,0.2004,0.2156,0.2205,0.2442,0.2651,0.2798,0.2897,0.3041,0.313,0.3152,0.3138,0.3282,0.3213,0.3223,0.3141,0.305,0.3016,0.3012,0.31,0.3103,0.3104,0.3106,0,0.1462,0.1488,0.161,0.1704,0.1814,0.1852,0.1941,0.207,0.2186,0.2515,0.256,0.2802,0.3019,0.3019,0.3039,0.302,0.2967,0.2855,0.2883,0.2904,0.2789,0.2636,0.2559,0,0,0,0,0,0.1391,0.1415,0.1489,0.1578,0.1661,0.1734,0.189,0.1989,0.2231,0.2266,0.2404,0.2528,0.2626,0.2755,0.2683,0.2899,0.295,0.28,0.2829,0.3,0.3021,0.2907,0,0,0,0,0,0,0.1344,0.1414,0.1453,0.1446,0.1482,0.1554,0.1645,0.1797,0.1837,0.2102,0.2173,0.2377,0.2505,0.2643,0.2641,0.2669,0.2632,0.2944,0.2937,0.2988,0.3007,0.3024,0.2914,0,0,0,0,0]},{"header":{"parameterUnit":"m.s-1","parameterCategory":2,"la1":30.2991,"la2":30.254,"lo1":-89.0895,"lo2":-89.0444,"dy":0.0017,"dx":0.0017,"nx":28,"ny":28,"refTime":"2025-07-19T21:00:00:Z","depth":"4","parameterNumber":3,"parameterNumberName":"V-component_of_CURRENTS"},"data":[0,0,0,0,0,0,0,0,0,0,0,0,0,0,0,0,0,0,0,0,0,0,0,0,0,0,0,0,0,0,0,0,0,0,0,0,0,0,0,0,0,0,0,0,0,0,0,0,0,0,0,0,0,0,0,0,0,0,0.0102,0.0102,0,0.0062,0.0062,0.0061,0.0033,0.0033,0.0033,0.0032,-0.0032,-0.0034,-0.0035,0,0,0,0,0,0,0,0,0,0,0,0,0,0.0108,0.0109,0.0102,0.0102,0.0101,0.0062,0.0061,0.0061,0.0033,0.0033,0.0032,0.0032,-0.0032,-0.0034,-0.0035,0,0,0,0,0,0,0,0,0,0,0,0,0,0.0091,0.0109,0.0102,0.0083,0.0081,0.0062,0.0061,0.0061,0.0033,0.0033,0.0032,0.0032,-0.0031,-0.0033,-0.0036,-0.0044,0,0,-0.0043,-0.0044,0,0,0,0,0,0,0,0,0.0092,0.009,0.0086,0.0084,0.0082,0.0052,0.004,0.0025,0.0033,0.0051,0.0032,0.0032,-0.0006,-0.001,-0.0017,-0.0047,-0.005,-0.0043,-0.0044,-0.0045,-0.0046,0,0,0,0,0,0,0,0.0093,0.0092,0.0086,0.0086,0.0083,0.006,0.0058,0.0037,0.0024,0.0049,0.0047,0.0043,-0.0007,-0.0015,-0.0019,-0.0051,-0.0043,-0.0045,-0.0046,-0.0047,-0.0102,-0.0102,0,0,0,0,0,0,0.0101,0.0093,0.0087,0.0085,0.0086,0.006,0.0058,0.0062,0.0025,0.0019,0.0043,0.0042,-0.0011,-0.0016,-0.0021,-0.0035,-0.0045,-0.0048,-0.0049,-0.0102,-0.0102,-0.0102,0,0,0,0,0,0,0.0102,0.0102,0.0089,0.0088,0.0084,0.0061,0.0066,0.0061,0.0056,0.0021,0.0014,0.0043,-0.0011,-0.0018,-0.0034,-0.0038,-0.0049,-0.0051,-0.0102,-0.0102,-0.0102,-0.0061,0,0,0,0,0,0,0.0102,0.0102,0.0107,0.0089,0.0085,0.0087,0.0066,0.0061,0.0054,0.0052,0.0018,0.0012,-0.0012,-0.003,-0.0036,-0.0041,-0.0052,-0.0102,-0.0102,-0.0102,-0.0063,-0.006,-0.0058,0,0,0,0,0,0.0103,0.0117,0.0108,0.0107,0.0093,0.0087,0.0084,0.0065,0.0055,0.0058,0.0035,0.0013,-0.0036,-0.0031,-0.0038,-0.0045,-0.0102,-0.0102,-0.0102,-0.0064,-0.0061,-0.0058,0,0,0,0,0,0,0.0124,0.0115,0.0105,0.0116,0.0104,0.0083,0.0085,0.007,0.0055,0.0054,0.0017,0.001,-0.0007,-0.003,-0.0024,-0.0062,-0.0075,-0.0076,-0.0043,-0.004,-0.0038,-0.0011,-0.0054,0,0,0,0,0,0.013,0.0139,0.0123,0.0131,0.0129,0.0107,0.0101,0.0091,0.0074,0.0067,0.0041,0.0012,-0.0014,-0.0028,-0.0051,-0.0068,-0.01,-0.0079,-0.0077,-0.0074,-0.0058,-0.0113,-0.0114,-0.0103,-0.0103,-0.0103,0,0,0.014,0.0136,0.014,0.0136,0.0126,0.0128,0.0103,0.0105,0.0109,0.0063,0.0059,0.0023,-0.0015,-0.0034,-0.0045,-0.0054,-0.0097,-0.0075,-0.0072,-0.0056,-0.0113,-0.0114,-0.0115,-0.0103,-0.0103,-0.0103,0,0,0.0168,0.0162,0.0178,0.0175,0.0167,0.0151,0.0154,0.0136,0.0132,0.0124,0.0086,0.0054,0.002,-0.0014,-0.0035,-0.0032,-0.008,-0.0048,-0.0017,-0.0072,-0.0073,-0.0074,-0.0127,-0.0133,-0.005,-0.005,-0.005,0,0.0178,0.02,0.0181,0.0197,0.0201,0.0164,0.0184,0.0171,0.015,0.0148,0.0133,0.0067,0.0032,-0.0003,-0.0004,-0.0026,-0.0064,-0.0024,-0.0068,-0.007,-0.0072,-0.0126,-0.0133,-0.0048,-0.0048,-0.0049,-0.0049,0,0.0217,0.0235,0.0247,0.0251,0.0249,0.0264,0.0244,0.0242,0.0225,0.0203,0.0177,0.0121,0.0084,0.0054,0.0028,-0.001,-0.0035,-0.0056,-0.0073,-0.0071,-0.0128,-0.0136,-0.0045,-0.0046,-0.0047,-0.0047,0,0,0.0241,0.027,0.0274,0.0301,0.0287,0.0298,0.03,0.0295,0.0308,0.026,0.0261,0.0194,0.0155,0.0129,0.0074,0.0021,-0.0037,-0.0018,-0.0022,-0.0065,-0.016,-0.0153,-0.0162,-0.007,-0.0071,-0.0072,-0.0198,0,0.0278,0.0332,0.0328,0.0375,0.0404,0.0381,0.0391,0.0378,0.0358,0.0346,0.0271,0.0251,0.0184,0.0169,0.0101,0.0007,-0.0055,-0.0,-0.0159,-0.0164,-0.0153,-0.017,-0.0075,-0.0204,-0.0206,-0.0208,-0.0209,0,0.0315,0.0353,0.0412,0.0463,0.0473,0.0489,0.0509,0.0518,0.0478,0.0465,0.0409,0.0348,0.0264,0.0214,0.004,0.0077,-0.003,-0.0115,-0.0122,-0.0129,-0.0171,-0.0206,-0.0225,-0.0224,-0.0223,-0.0221,-0.022,0,0.0352,0.0412,0.0468,0.0485,0.0523,0.0553,0.057,0.0554,0.0585,0.0543,0.0545,0.0423,0.0383,0.0226,0.0045,0.0045,-0.0152,-0.0176,-0.0277,-0.0279,-0.0266,-0.0263,-0.0297,-0.0297,-0.0297,-0.0297,-0.0296,0,0.0393,0.0444,0.0501,0.0537,0.062,0.062,0.0692,0.0691,0.0693,0.0725,0.0615,0.0599,0.0387,0.0245,0.0066,-0.0132,-0.0143,-0.0268,-0.0308,-0.0248,-0.0241,-0.0273,-0.0269,-0.0301,-0.03,-0.0299,-0.0299,0,0.0425,0.0455,0.0539,0.0609,0.0643,0.0706,0.0795,0.0844,0.0829,0.0867,0.0861,0.0735,0.0556,0.032,0.0065,-0.0079,-0.0284,-0.0356,-0.0274,-0.0309,-0.038,-0.0372,-0.0466,-0.0467,-0.0468,-0.0468,-0.0469,0,0.0445,0.049,0.0603,0.0669,0.0712,0.0809,0.088,0.0914,0.0964,0.0946,0.0964,0.0815,0.0699,0.0342,0.0088,-0.0258,-0.0308,-0.0415,-0.0396,-0.0366,-0.0397,-0.0388,-0.0379,-0.047,-0.047,-0.047,-0.047,0,0.0491,0.053,0.0601,0.0736,0.0835,0.0949,0.1048,0.1092,0.1122,0.1117,0.1056,0.0868,0.0663,0.0369,0.0096,-0.0155,-0.0345,-0.0422,-0.0423,-0.0405,-0.0372,-0.0399,-0.039,-0.0472,-0.0472,-0.0472,-0.0472,0,0.0524,0.0584,0.0678,0.0802,0.0927,0.104,0.1093,0.115,0.1194,0.1166,0.1145,0.0911,0.078,0.0422,0.0166,-0.0076,-0.0131,-0.0206,-0.0218,-0.0219,-0.0113,-0.0033,-0.0059,0,0,0,0,0,0.0556,0.0631,0.074,0.087,0.0991,0.1073,0.1184,0.1219,0.1249,0.1227,0.1188,0.0994,0.0635,0.0475,0.0237,0.014,-0.0187,-0.0147,-0.0283,-0.0484,-0.0482,-0.0399,0,0,0,0,0,0,0.0579,0.0681,0.0741,0.0899,0.0999,0.114,0.1218,0.1242,0.1222,0.1211,0.1024,0.0941,0.0587,0.0774,0.0235,0.0162,0.0044,-0.0314,-0.0319,-0.0486,-0.0483,-0.0481,-0.0396,0,0,0,0,0]}]]